{"data":{"norad_id":52331,"epoch":"2026-05-25T05:18:18.377856Z","epoch_age_seconds":66328,"freshness":"FRESH","line1":"1 52331U 22045A   26145.22104604  .00000226  00000+0  32281-4 0  9993","line2":"2 52331  53.2150 225.5591 0001063  82.1979 277.9134 15.08840451227197","mean_motion":15.08840451,"eccentricity":0.0001063,"inclination_deg":53.215,"raan_deg":225.5591,"arg_perigee_deg":82.1979,"mean_anomaly_deg":277.9134,"bstar":3.2281e-5,"rev_number":22719,"period_min":95.437526151001,"perigee_km":539.00663989906,"apogee_km":540.47738097668,"semimajor_km":6917.8790104379,"source":"CELESTRAK","updated_at":"2026-05-25T13:38:17.112019Z"}}